Location: Doschendorf
(50.0069°N, 11.0602°E)
Time: 23:32:03
(UTC+00:00)

YAOGAN 1 - Pass Details

Date: 17 November 2019
Orbit: 619 x 621 km, 98.0° (Epoch: 09 December)

Event Time Altitude Azimuth Distance (km) Brightness Sun altitude
Rises 17:22:54 0° 158° (SSE) 2,887 5.9 -18.0°
Reaches altitude 10° 17:25:05 10° 156° (SSE) 1,985 5.0 -18.3°
Maximum altitude 17:29:23 71° 73° (ENE) 660 2.4 -19.0°
Drops below altitude 10° 17:33:43 10° 350° (N) 2,000 5.2 -19.7°
Sets 17:35:55 0° 348° (NNW) 2,910 6.1 -20.0°
